Location: *
(51.0333°S, 178.4667°E)
Time: 06:28:27
(UTC+00:00)

Cosmos 332 Rocket - Pass Details

Date: 15 November 2019
Orbit: 681 x 704 km, 74.0° (Epoch: 07 December)

Event Time Altitude Azimuth Distance (km) Brightness Sun altitude
Exits shadow 11:23:14 47° 13° (NNE) 926 4.0 -20.2°
Maximum altitude 11:24:27 64° 70° (ENE) 775 3.8 -20.3°
Drops below altitude 10° 11:29:16 10° 150° (SSE) 2,166 7.1 -20.3°
Sets 11:31:37 0° 153° (SSE) 3,088 8.1 -20.4°
